When you browse on this site, cookies collect data to enhance your experience and personalize the content and advertising you see.
Visit our Privacy Policy to learn more. By continuing to use the site, you agree to this use of cookies and data.
  • In Spain
  • List of Countries
  • For 7 days
  • Water Temperature
  • Weather Map
  • Weather Widgets
  • user-avatar
    Login

    Hourly Weather Bijsk

    Today, 28 May, Thursday

    Time Temperature Precipitation Wind Pressure Humidity
    00:00 +7°C° 0 mm 2 mps 752 mmHg 83%
    01:00 +7°C° 0 mm 2 mps 752 mmHg 84%
    02:00 +7°C° 0 mm 1 mps 752 mmHg 85%
    03:00 +7°C° 0 mm 1 mps 752 mmHg 86%
    04:00 +7°C° 0 mm 1 mps 752 mmHg 84%
    05:00 +8°C° 0 mm 1 mps 752 mmHg 82%
    06:00 +9°C° 0 mm 1 mps 752 mmHg 80%
    07:00 +10°C° 0 mm 1 mps 752 mmHg 73%
    08:00 +12°C° 0 mm 1 mps 752 mmHg 67%
    09:00 +13°C° 0 mm 1 mps 752 mmHg 61%
    10:00 +14°C° 0 mm 1 mps 752 mmHg 58%
    11:00 +15°C° 0 mm 2 mps 751 mmHg 54%
    12:00 +16°C° 0 mm 2 mps 751 mmHg 51%
    13:00 +16°C° 0 mm 2 mps 750 mmHg 50%
    14:00 +16°C° 0 mm 2 mps 750 mmHg 49%
    15:00 +17°C° 0 mm 2 mps 750 mmHg 49%
    16:00 +17°C° 0 mm 2 mps 750 mmHg 51%
    17:00 +16°C° 0 mm 2 mps 750 mmHg 53%
    18:00 +16°C° 0 mm 2 mps 749 mmHg 55%
    19:00 +14°C° 0 mm 2 mps 750 mmHg 61%
    20:00 +13°C° 0 mm 2 mps 750 mmHg 67%
    21:00 +11°C° 0 mm 1 mps 750 mmHg 73%
    22:00 +10°C° 0 mm 1 mps 750 mmHg 75%
    23:00 +10°C° 0 mm 1 mps 750 mmHg 77%

    Tomorrow, 29 May, Friday

    Time Temperature Precipitation Wind Pressure Humidity
    00:00 +8°C° 0 mm 0 mps 750 mmHg 79%
    01:00 +9°C° 0 mm 1 mps 750 mmHg 81%
    02:00 +8°C° 0 mm 1 mps 749 mmHg 83%
    03:00 +8°C° 0 mm 1 mps 749 mmHg 85%
    04:00 +8°C° 0 mm 1 mps 749 mmHg 83%
    05:00 +9°C° 0 mm 1 mps 749 mmHg 81%
    06:00 +10°C° 0 mm 1 mps 749 mmHg 78%
    07:00 +12°C° 0 mm 1 mps 749 mmHg 72%
    08:00 +14°C° 0 mm 1 mps 749 mmHg 65%
    09:00 +15°C° 0 mm 2 mps 748 mmHg 59%
    10:00 +16°C° 0 mm 2 mps 748 mmHg 55%
    11:00 +17°C° 0 mm 2 mps 747 mmHg 51%
    12:00 +18°C° 0 mm 2 mps 747 mmHg 46%
    13:00 +19°C° 0 mm 2 mps 746 mmHg 45%
    14:00 +19°C° 0 mm 2 mps 746 mmHg 44%
    15:00 +20°C° 0 mm 2 mps 746 mmHg 43%
    16:00 +19°C° 0 mm 2 mps 746 mmHg 46%
    17:00 +19°C° 0 mm 2 mps 745 mmHg 49%
    18:00 +19°C° 0 mm 2 mps 745 mmHg 51%
    19:00 +18°C° 0 mm 1 mps 745 mmHg 56%
    20:00 +15°C° 0 mm 1 mps 745 mmHg 61%
    21:00 +13°C° 0 mm 1 mps 745 mmHg 66%
    22:00 +12°C° 0 mm 1 mps 744 mmHg 68%
    23:00 +12°C° 0 mm 1 mps 744 mmHg 69%

    Day after tomorrow, 30 May, Saturday

    Time Temperature Precipitation Wind Pressure Humidity
    00:00 +11°C° 0 mm 1 mps 744 mmHg 71%
    01:00 +11°C° 0 mm 1 mps 743 mmHg 72%
    02:00 +10°C° 0 mm 2 mps 743 mmHg 73%
    03:00 +10°C° 0 mm 2 mps 742 mmHg 73%
    04:00 +12°C° 0 mm 2 mps 742 mmHg 72%
    05:00 +13°C° 0 mm 1 mps 742 mmHg 71%
    06:00 +14°C° 0 mm 1 mps 742 mmHg 70%
    07:00 +16°C° 0 mm 2 mps 742 mmHg 66%
    08:00 +17°C° 0 mm 2 mps 742 mmHg 62%
    09:00 +19°C° 0 mm 3 mps 742 mmHg 58%
    10:00 +20°C° 0 mm 4 mps 742 mmHg 58%
    11:00 +21°C° 0 mm 5 mps 742 mmHg 57%
    12:00 +21°C° 0 mm 5 mps 742 mmHg 57%
    13:00 +22°C° 0 mm 5 mps 742 mmHg 55%
    14:00 +22°C° 0 mm 5 mps 742 mmHg 53%
    15:00 +22°C° 0 mm 6 mps 742 mmHg 51%
    16:00 +22°C° 0 mm 5 mps 742 mmHg 54%
    17:00 +21°C° 0 mm 4 mps 742 mmHg 57%
    18:00 +20°C° 0 mm 4 mps 743 mmHg 60%
    19:00 +19°C° 0 mm 3 mps 743 mmHg 62%
    20:00 +17°C° 0 mm 3 mps 744 mmHg 64%
    21:00 +16°C° 0 mm 2 mps 744 mmHg 66%
    22:00 +15°C° 0 mm 2 mps 744 mmHg 69%
    23:00 +15°C° 0 mm 2 mps 744 mmHg 71%

    31 May, Sunday

    Time Temperature Precipitation Wind Pressure Humidity
    00:00 +14°C° 0 mm 2 mps 744 mmHg 74%
    01:00 +13°C° 0 mm 2 mps 744 mmHg 75%
    02:00 +13°C° 0 mm 2 mps 744 mmHg 77%
    03:00 +12°C° 0 mm 2 mps 744 mmHg 78%
    04:00 +13°C° 0 mm 2 mps 744 mmHg 78%
    05:00 +13°C° 0 mm 2 mps 744 mmHg 77%
    06:00 +14°C° 0 mm 2 mps 744 mmHg 76%
    07:00 +16°C° 0 mm 3 mps 744 mmHg 68%
    08:00 +18°C° 0 mm 4 mps 743 mmHg 60%
    09:00 +20°C° 0 mm 4 mps 743 mmHg 53%
    10:00 +21°C° 0 mm 5 mps 743 mmHg 50%
    11:00 +22°C° 0 mm 6 mps 743 mmHg 47%
    12:00 +23°C° 0 mm 7 mps 742 mmHg 45%
    13:00 +23°C° 0 mm 7 mps 742 mmHg 45%
    14:00 +24°C° 0 mm 7 mps 742 mmHg 45%
    15:00 +24°C° 0 mm 6 mps 742 mmHg 45%
    16:00 +25°C° 0 mm 5 mps 742 mmHg 49%
    17:00 +25°C° 0 mm 4 mps 742 mmHg 53%
    18:00 +24°C° 0 mm 3 mps 742 mmHg 58%
    19:00 +22°C° 0 mm 3 mps 742 mmHg 60%
    20:00 +20°C° 0 mm 2 mps 742 mmHg 62%
    21:00 +18°C° 0 mm 2 mps 741 mmHg 65%
    22:00 +17°C° 0 mm 2 mps 741 mmHg 66%
    23:00 +16°C° 0 mm 1 mps 741 mmHg 67%

    1 June, Monday

    Time Temperature Precipitation Wind Pressure Humidity
    00:00 +16°C° 0 mm 1 mps 740 mmHg 68%
    01:00 +16°C° 0 mm 1 mps 740 mmHg 66%
    02:00 +16°C° 0 mm 2 mps 739 mmHg 63%
    03:00 +17°C° 0 mm 2 mps 739 mmHg 60%
    04:00 +16°C° 0.2 mm 3 mps 739 mmHg 67%
    05:00 +16°C° 0.2 mm 3 mps 739 mmHg 73%
    06:00 +15°C° 0.2 mm 4 mps 739 mmHg 80%
    07:00 +16°C° 0.1 mm 3 mps 739 mmHg 81%
    08:00 +17°C° 0.1 mm 2 mps 738 mmHg 82%
    09:00 +18°C° 0.1 mm 1 mps 738 mmHg 83%
    10:00 +19°C° 0 mm 2 mps 738 mmHg 74%
    11:00 +21°C° 0 mm 2 mps 738 mmHg 64%
    12:00 +25°C° 0 mm 2 mps 738 mmHg 55%
    13:00 +25°C° 0 mm 2 mps 738 mmHg 53%
    14:00 +26°C° 0 mm 3 mps 739 mmHg 51%
    15:00 +27°C° 0 mm 3 mps 739 mmHg 50%
    16:00 +26°C° 0 mm 3 mps 739 mmHg 56%
    17:00 +24°C° 0 mm 2 mps 739 mmHg 62%
    18:00 +23°C° 0 mm 2 mps 739 mmHg 68%
    19:00 +21°C° 0 mm 2 mps 738 mmHg 71%
    20:00 +20°C° 0 mm 3 mps 738 mmHg 74%
    21:00 +19°C° 0 mm 4 mps 737 mmHg 77%
    22:00 +19°C° 0.9 mm 4 mps 737 mmHg 82%
    23:00 +18°C° 0.9 mm 4 mps 737 mmHg 88%

    2 June, Tuesday

    Time Temperature Precipitation Wind Pressure Humidity
    00:00 +17°C° 0.9 mm 5 mps 737 mmHg 93%
    01:00 +18°C° 0.3 mm 4 mps 736 mmHg 93%
    02:00 +18°C° 0.3 mm 3 mps 736 mmHg 93%
    03:00 +18°C° 0.3 mm 3 mps 736 mmHg 94%
    04:00 +18°C° 0 mm 2 mps 736 mmHg 91%
    05:00 +18°C° 0 mm 2 mps 736 mmHg 89%
    06:00 +19°C° 0 mm 2 mps 736 mmHg 86%
    07:00 +20°C° 0 mm 2 mps 736 mmHg 80%
    08:00 +22°C° 0 mm 3 mps 736 mmHg 74%
    09:00 +25°C° 0 mm 3 mps 736 mmHg 67%
    10:00 +27°C° 0 mm 3 mps 736 mmHg 60%
    11:00 +28°C° 0 mm 3 mps 735 mmHg 53%
    12:00 +30°C° 0 mm 3 mps 735 mmHg 46%
    13:00 +28°C° 2.5 mm 3 mps 734 mmHg 57%
    14:00 +25°C° 2.5 mm 3 mps 734 mmHg 68%
    15:00 +21°C° 2.5 mm 2 mps 733 mmHg 79%
    16:00 +22°C° 0.4 mm 3 mps 734 mmHg 77%
    17:00 +24°C° 0.4 mm 3 mps 734 mmHg 75%
    18:00 +25°C° 0.4 mm 3 mps 735 mmHg 73%
    19:00 +22°C° 0.1 mm 3 mps 735 mmHg 71%
    20:00 +21°C° 0.1 mm 3 mps 735 mmHg 70%
    21:00 +19°C° 0.1 mm 3 mps 736 mmHg 68%
    22:00 +18°C° 0 mm 3 mps 736 mmHg 70%
    23:00 +17°C° 0 mm 3 mps 736 mmHg 72%
    Show more